Wetbulb
49.91 48.18 46.85 46.67 46.79 50.24 48.95 49.84 53.56 53.71 57.81 57.96 57.53 58.03 59.86 60.69 61.06 61.39 63.02 64.51 65.64 66.56 69.18 70.16 70.37 71.22 71.38 72.09 72.69 72.94 71.60 70.90 69.15 67.79 66.04 65.34 64.02 63.83 63.21 63.40 63.78 63.03 62.48 63.49
48.99 46.16 48.44 46.61 46.03 46.14 46.34 46.45 50.48 48.28 49.13 57.72 57.20 57.07 59.60 59.70 61.08 61.67 62.68 64.26 65.67 67.14 68.31 69.03 70.04 70.96 71.57 72.13 72.67 72.35 71.58 70.33 69.13 68.46 67.13 65.41 62.51 62.04 62.08 61.83 62.46 62.82 62.52 62.92
47.11 47.50 48.63 47.76 46.00 45.60 45.47 45.73 45.90 46.65 51.83 55.18 53.05 51.60 54.41 58.44 60.82 62.43 63.29 65.20 66.54 67.14 67.67 68.62 69.10 69.89 70.94 71.72 72.24 72.05 70.79 69.26 68.47 67.73 66.19 63.39 61.93 61.14 59.99 60.70 61.25 62.40 62.60 62.56
48.32 49.65 48.53 47.66 47.39 48.22 45.34 47.67 47.62 49.15 49.76 45.84 52.89 44.45 53.01 56.72 58.03 60.31 62.53 63.82 65.26 66.97 68.38 69.21 68.94 69.22 69.92 71.64 72.35 72.42 70.77 69.20 68.28 66.85 65.25 62.80 60.50 58.17 59.19 60.26 61.46 62.10 63.15 63.00
47.60 47.60 47.79 46.92 48.05 49.15 48.11 48.71 47.92 49.93 48.88 48.26 50.15 47.89 50.82 54.66 55.63 58.63 61.49 63.40 65.16 66.70 67.77 68.33 68.92 69.44 69.46 69.53 70.07 70.63 69.86 68.12 67.06 64.84 63.69 61.50 61.52 60.38 60.25 60.79 61.83 62.61 63.23 63.24
49.15 50.13 49.75 49.43 49.92 49.29 49.15 48.57 48.23 47.21 46.91 42.75 47.63 49.00 46.91 50.74 56.20 58.27 61.80 63.49 64.62 66.08 67.43 68.78 69.59 69.32 67.29 64.26 64.23 64.29 65.26 65.51 65.92 64.77 63.01 62.66 61.87 60.75 59.70 60.54 60.49 60.97 61.72 62.28
47.29 47.79 50.13 50.93 48.71 49.15 48.94 49.09 43.48 41.79 41.70 41.35 44.93 46.30 49.14 53.83 53.26 56.71 61.12 63.32 64.79 65.86 66.43 67.54 67.64 66.43 63.74 61.35 60.50 60.53 60.56 61.68 64.98 63.60 62.93 63.05 62.49 61.75 61.47 61.38 60.77 60.98 60.54 61.04
43.89 42.33 47.78 50.72 50.24 49.26 48.58 49.29 43.66 38.11 39.30 41.78 43.72 42.85 47.14 53.16 53.70 57.13 59.23 61.23 60.56 62.23 65.86 66.95 66.45 65.86 62.35 62.76 60.89 61.49 61.09 60.93 62.49 63.17 62.26 62.90 62.57 61.21 61.22 62.04 61.51 61.05 60.93 62.00
43.72 43.50 48.95 49.64 50.71 50.69 46.39 45.41 48.06 43.86 41.78 41.89 44.59 46.49 51.48 54.49 55.44 57.20 60.75 61.87 60.97 59.97 63.87 66.02 65.72 64.88 64.02 63.78 63.94 62.58 61.07 61.72 62.32 63.58 62.00 61.79 62.07 61.56 61.29 62.52 62.51 61.51 62.66 61.74
49.09 43.79 47.77 49.62 50.95 49.70 48.99 48.90 45.31 45.38 39.75 38.30 42.65 43.90 46.67 52.56 54.90 56.68 59.31 61.50 62.14 62.44 63.89 64.72 64.45 64.83 65.03 64.74 64.59 63.44 63.02 61.82 62.45 63.52 62.08 61.35 62.03 61.94 62.14 61.85 61.49 62.27 61.63 60.55
49.09 48.47 46.84 48.66 48.40 48.21 46.89 46.42 45.62 47.30 45.76 41.88 40.65 44.12 53.72 54.59 57.05 57.37 58.99 61.61 63.01 63.26 63.16 63.98 64.26 65.54 65.70 65.33 64.37 63.31 62.14 62.32 61.73 61.77 61.40 61.23 61.73 61.88 61.57 61.59 61.84 61.27 59.71 59.25
49.68 48.68 44.61 46.40 48.91 50.25 49.64 49.15 49.82 45.22 44.02 44.00 43.99 44.88 52.68 55.68 56.71 57.92 59.16 61.01 63.46 63.98 63.81 63.91 63.82 64.58 65.61 64.69 63.35 62.39 61.68 61.36 61.15 61.21 60.74 60.75 61.22 61.12 61.30 60.93 59.74 57.91 57.44 57.87
50.33 47.31 43.98 45.82 47.61 49.12 48.62 48.50 48.98 47.85 47.69 44.58 42.88 45.18 53.54 53.68 54.11 56.16 57.39 59.25 61.83 63.47 63.32 62.95 63.18 63.57 64.29 64.11 63.12 61.79 60.99 60.76 60.97 60.73 60.40 60.39 60.73 61.20 60.63 59.34 57.41 56.94 56.14 54.63
54.86 48.28 48.29 43.50 46.11 48.15 46.86 47.46 47.73 49.37 46.47 46.50 45.84 48.21 51.85 53.44 54.37 56.79 57.41 58.28 58.78 61.93 63.14 63.42 62.78 62.80 63.42 63.71 62.81 61.42 60.83 60.79 60.64 60.55 59.70 59.71 59.87 60.18 57.82 57.17 56.67 55.87 54.29 54.21
53.30 48.91 47.39 48.13 47.68 46.68 47.98 47.47 47.48 46.47 49.00 46.38 48.28 47.76 52.08 54.89 55.06 56.33 57.78 57.18 56.94 57.83 60.57 62.80 63.02 63.00 63.01 63.24 62.16 61.57 61.18 60.40 60.39 59.65 59.44 59.71 59.03 57.67 57.14 56.51 53.89 52.81 54.47 54.43
50.34 48.37 47.84 46.23 48.60 48.29 46.69 49.02 48.86 48.38 48.60 47.95 48.76 48.86 54.37 55.76 55.38 54.57 56.05 56.93 56.20 57.25 58.46 60.80 62.75 63.21 62.27 62.40 61.04 60.63 60.32 60.02 60.39 59.67 59.06 57.81 57.24 56.62 55.56 53.83 54.40 50.72 52.44 53.82
50.08 48.85 46.55 43.27 48.03 47.71 43.85 47.65 48.95 49.83 50.85 50.46 47.70 51.92 54.44 53.50 54.39 55.48 56.64 57.34 56.92 57.38 58.12 59.11 61.05 62.52 62.61 61.93 61.32 60.44 60.46 60.52 59.89 59.53 58.50 57.23 56.13 55.28 53.92 52.84 51.24 50.29 51.73 50.47
49.04 47.57 47.36 44.16 45.09 37.72 47.77 51.51 51.79 50.79 51.95 52.86 52.51 52.40 54.07 55.01 56.55 55.96 56.88 56.42 57.44 58.12 58.15 59.20 60.27 62.24 62.61 61.62 61.12 61.39 60.87 60.29 59.76 59.47 57.73 56.51 55.52 53.85 51.30 49.26 48.41 50.26 49.66 52.21
51.00 49.12 45.44 42.09 41.82 45.38 46.17 49.87 49.86 49.07 49.33 53.77 52.97 53.99 54.87 55.13 55.00 56.49 59.12 58.50 58.93 59.41 60.18 60.14 60.55 61.36 60.72 60.65 61.14 60.64 60.11 60.33 59.26 58.29 57.43 56.25 55.01 49.93 48.44 48.83 49.60 50.05 51.68 51.69
49.87 49.98 47.10 42.99 39.70 37.77 47.42 51.93 54.70 53.29 45.38 54.34 54.56 54.60 54.72 54.40 50.42 54.06 57.23 58.95 59.99 60.48 60.98 59.92 59.49 59.65 60.00 60.40 60.54 59.85 59.44 59.32 58.33 57.97 57.12 55.11 51.35 48.42 48.00 50.29 50.01 51.52 51.26 51.07
44.42 45.04 43.17 42.77 41.11 44.60 50.37 52.55 53.55 44.34 46.95 54.39 54.25 54.75 54.09 53.11 55.49 57.14 57.13 58.65 59.69 60.31 59.41 59.78 59.54 59.01 59.45 59.76 59.91 59.07 58.30 57.89 58.57 57.96 55.61 51.23 48.67 48.29 50.54 50.58 51.10 49.43 49.59 50.44
44.23 42.72 41.92 43.42 40.53 38.34 51.95 51.23 48.23 52.87 55.16 55.69 55.80 56.05 55.57 56.57 57.06 57.42 58.04 58.08 58.79 58.80 58.42 58.83 57.63 56.99 57.18 58.57 58.63 56.88 56.59 57.57 56.64 53.85 51.07 48.48 49.24 49.83 51.22 50.49 48.96 49.12 49.35 48.59
41.58 46.54 44.62 45.57 45.84 51.66 53.48 53.88 55.69 55.43 55.19 55.38 56.19 56.66 56.88 56.69 56.93 57.21 57.49 57.40 57.56 58.49 58.25 57.12 55.98 54.82 55.28 57.00 57.80 55.73 53.76 54.39 52.75 49.57 48.75 48.99 49.87 50.54 49.93 48.03 47.44 46.36 47.36 45.88
45.80 48.06 45.03 46.11 49.09 49.63 51.48 54.62 55.14 55.82 55.87 56.65 57.31 57.39 57.45 56.73 57.50 57.20 56.96 56.30 56.85 56.48 55.57 55.73 55.09 53.66 53.20 55.49 55.38 53.18 50.90 51.18 50.72 47.37 48.16 48.47 48.75 48.00 47.74 47.18 46.68 45.97 46.05 45.91
46.50 46.89 45.72 46.78 48.65 50.81 52.22 53.36 53.21 53.72 54.27 53.83 55.86 56.74 56.56 57.02 57.29 57.37 56.76 55.74 56.12 56.17 56.10 56.52 55.71 54.39 54.27 54.07 51.36 50.87 50.39 49.86 47.77 46.97 47.94 48.62 47.84 46.68 45.52 46.87 47.08 47.16 48.67 47.16
44.70 44.39 43.14 43.36 47.15 46.40 47.75 49.96 50.50 50.40 50.82 52.46 54.55 53.84 54.52 55.77 56.32 57.41 56.66 56.12 55.63 55.27 55.76 55.78 56.10 55.53 54.02 53.83 52.18 49.03 50.59 51.28 49.83 47.72 47.22 47.14 47.16 47.24 45.98 46.03 45.91 40.64 40.92 39.42
MSLP
1009.91 1009.57 1009.28 1009.38 1009.41 1009.15 1008.88 1009.01 1009.10 1009.52 1009.93 1010.17 1009.65 1009.07 1009.78 1010.62 1010.99 1010.97 1011.31 1012.09 1012.54 1013.01 1013.60 1014.09 1014.31 1014.64 1015.00 1015.54 1016.17 1016.84 1017.47 1018.22 1018.65 1019.02 1019.73 1020.37 1020.68 1021.11 1021.30 1021.60 1021.72 1021.85 1021.92 1022.00
1009.81 1009.41 1009.55 1009.72 1009.67 1009.41 1009.09 1009.03 1009.20 1009.58 1010.05 1010.26 1009.73 1009.30 1009.62 1010.14 1010.07 1010.45 1010.93 1011.50 1012.11 1012.83 1013.46 1014.00 1014.36 1014.68 1014.87 1015.30 1016.02 1016.70 1017.33 1018.08 1018.59 1019.10 1019.60 1020.06 1020.57 1021.11 1021.47 1021.90 1022.06 1022.14 1022.16 1022.18
1009.20 1009.18 1009.64 1009.61 1009.79 1009.68 1009.52 1009.24 1009.38 1009.57 1010.16 1010.46 1010.30 1009.40 1009.01 1009.04 1009.73 1010.15 1010.53 1010.84 1011.45 1011.80 1012.44 1013.36 1014.05 1014.48 1015.00 1015.14 1015.72 1016.38 1017.29 1018.00 1018.64 1019.39 1019.99 1020.49 1021.16 1021.62 1021.73 1021.99 1022.13 1022.33 1022.17 1022.30
1009.12 1009.13 1009.24 1009.34 1009.20 1009.26 1009.20 1009.05 1009.26 1009.71 1009.65 1009.74 1010.17 1008.71 1008.56 1008.48 1008.79 1009.31 1009.53 1010.01 1010.34 1010.98 1011.64 1012.35 1013.20 1013.91 1014.42 1015.05 1015.70 1016.38 1017.23 1018.14 1018.77 1019.30 1019.74 1020.15 1020.40 1020.83 1021.27 1021.61 1021.95 1022.07 1022.26 1022.40
1008.61 1008.63 1008.75 1008.76 1008.40 1008.63 1008.41 1008.54 1009.06 1009.24 1009.35 1009.55 1010.01 1009.45 1008.08 1008.42 1008.17 1008.04 1008.23 1008.52 1009.06 1009.63 1010.45 1011.27 1012.64 1013.50 1014.78 1015.81 1016.37 1017.27 1017.94 1018.63 1019.19 1019.55 1019.39 1019.98 1020.54 1021.12 1021.33 1021.61 1021.95 1022.13 1022.34 1022.41
1008.43 1008.51 1008.29 1007.89 1008.03 1008.26 1008.71 1008.85 1009.24 1009.71 1009.55 1009.22 1008.87 1008.75 1007.44 1007.50 1007.02 1006.73 1006.97 1007.39 1007.84 1008.76 1009.73 1010.87 1012.22 1013.81 1015.20 1016.49 1017.08 1018.82 1018.87 1018.78 1018.86 1019.39 1020.17 1020.00 1020.21 1020.83 1021.30 1021.50 1021.61 1021.83 1022.02 1022.11
1008.22 1007.96 1007.61 1007.64 1007.75 1008.26 1008.51 1008.29 1008.50 1008.78 1008.87 1008.59 1009.26 1008.79 1007.13 1006.81 1006.87 1006.90 1006.52 1006.79 1007.21 1008.19 1009.25 1010.46 1011.87 1013.55 1015.08 1016.07 1016.62 1016.97 1017.90 1018.61 1018.21 1019.22 1020.30 1020.08 1020.10 1020.72 1020.95 1021.48 1021.33 1021.69 1021.89 1022.07
1007.78 1007.49 1007.21 1006.99 1006.97 1007.10 1007.85 1007.86 1007.94 1008.23 1008.62 1008.68 1009.48 1008.25 1007.03 1006.87 1006.87 1007.01 1007.03 1007.05 1007.46 1007.52 1008.58 1009.98 1011.49 1012.69 1014.06 1014.94 1015.06 1014.43 1014.53 1016.80 1017.61 1018.42 1019.55 1019.66 1019.98 1020.36 1020.72 1021.24 1021.29 1021.45 1021.73 1022.11
1007.87 1007.49 1006.96 1006.90 1006.86 1007.14 1008.05 1008.38 1008.47 1008.64 1009.61 1008.87 1008.18 1007.93 1007.03 1006.85 1006.87 1006.97 1006.99 1007.02 1006.90 1007.40 1008.21 1009.53 1011.07 1012.11 1012.49 1013.10 1014.34 1015.33 1014.97 1016.50 1016.88 1017.50 1018.95 1019.41 1020.06 1020.13 1020.52 1021.27 1021.45 1021.71 1022.07 1022.42
1007.63 1007.68 1007.19 1007.04 1007.11 1007.60 1007.63 1008.31 1008.77 1008.79 1008.43 1008.02 1007.61 1007.27 1006.23 1006.31 1006.22 1006.57 1006.71 1006.75 1006.99 1007.74 1008.58 1009.44 1010.39 1011.20 1011.78 1013.03 1013.88 1014.66 1014.69 1015.72 1016.47 1017.21 1018.00 1018.89 1019.48 1019.94 1020.55 1021.14 1021.39 1021.76 1022.08 1022.30
1007.85 1007.78 1007.54 1007.23 1007.06 1007.08 1008.11 1008.18 1008.64 1008.51 1008.25 1007.38 1006.89 1006.03 1005.87 1005.64 1005.67 1005.96 1006.14 1006.49 1006.88 1007.71 1008.67 1009.39 1009.98 1010.66 1011.57 1012.63 1013.50 1014.12 1014.80 1015.67 1016.21 1016.80 1017.63 1018.51 1019.08 1019.84 1020.60 1021.15 1021.48 1021.83 1022.24 1022.38
1008.08 1008.20 1007.64 1007.07 1007.02 1007.16 1007.21 1007.41 1007.84 1007.76 1007.94 1007.86 1006.99 1005.69 1005.56 1005.46 1005.39 1005.69 1005.74 1006.12 1006.70 1007.31 1008.16 1008.94 1009.70 1010.24 1010.69 1011.45 1012.63 1013.52 1014.43 1014.82 1015.60 1016.80 1017.56 1018.07 1018.84 1019.74 1020.45 1021.11 1021.65 1022.02 1022.32 1022.62
1007.96 1008.27 1007.81 1007.07 1007.40 1007.37 1007.10 1007.06 1007.24 1007.49 1007.42 1006.85 1006.12 1005.32 1005.34 1005.49 1005.48 1005.36 1005.41 1005.55 1006.17 1006.91 1007.73 1008.47 1009.07 1009.47 1010.16 1010.92 1011.95 1012.56 1013.49 1014.34 1015.25 1016.35 1017.29 1018.17 1018.88 1019.58 1020.49 1021.14 1021.67 1022.12 1022.65 1022.90
1007.54 1008.03 1007.39 1006.87 1006.57 1006.80 1006.91 1006.86 1006.97 1006.61 1006.30 1005.57 1005.29 1004.70 1004.92 1004.84 1004.86 1005.09 1005.46 1005.57 1005.99 1006.47 1007.07 1007.66 1008.13 1008.51 1009.30 1010.00 1011.04 1012.18 1013.27 1014.02 1015.03 1015.79 1016.83 1017.81 1018.64 1019.26 1020.12 1020.74 1021.58 1022.16 1022.73 1022.87
1008.10 1007.73 1007.58 1007.04 1006.83 1006.84 1006.38 1006.24 1006.43 1006.45 1005.68 1005.23 1004.41 1004.59 1004.27 1004.17 1004.66 1004.74 1004.95 1005.32 1005.66 1005.85 1006.17 1006.45 1006.78 1007.23 1008.25 1009.27 1010.38 1011.56 1012.54 1013.33 1014.20 1015.34 1016.53 1017.77 1018.70 1019.26 1019.91 1020.91 1021.63 1022.22 1022.81 1023.12
1008.50 1007.75 1007.52 1006.97 1006.64 1006.48 1006.05 1005.88 1005.80 1005.64 1005.46 1005.11 1004.72 1004.40 1004.19 1004.27 1004.55 1004.68 1004.63 1004.81 1005.03 1005.08 1005.24 1005.45 1005.65 1006.18 1006.89 1007.94 1009.28 1010.60 1011.69 1012.72 1013.76 1014.81 1016.24 1017.59 1018.64 1019.49 1020.20 1020.95 1021.68 1022.40 1023.08 1023.32
1008.58 1008.08 1007.85 1006.70 1006.68 1006.18 1005.39 1005.23 1005.04 1004.70 1004.44 1004.07 1003.62 1003.27 1003.84 1003.97 1004.01 1004.11 1004.07 1004.21 1004.38 1004.52 1004.67 1004.91 1005.05 1005.59 1006.67 1007.82 1009.06 1010.05 1011.18 1012.45 1013.47 1014.56 1015.86 1016.96 1017.86 1018.53 1020.07 1020.88 1021.90 1022.28 1023.01 1023.39
1008.58 1008.42 1007.87 1006.97 1007.16 1005.66 1004.32 1004.49 1004.34 1004.08 1003.77 1003.69 1003.53 1003.70 1003.54 1003.42 1003.49 1003.76 1003.76 1003.99 1004.13 1004.40 1004.80 1004.97 1005.11 1005.56 1006.41 1007.59 1008.96 1010.16 1011.13 1012.14 1013.19 1014.28 1015.52 1016.80 1017.54 1018.87 1020.03 1020.98 1021.73 1022.57 1023.06 1023.29
1008.45 1008.25 1007.78 1007.40 1006.45 1005.19 1004.95 1004.67 1004.29 1003.79 1003.23 1003.34 1003.47 1003.35 1003.38 1003.76 1004.14 1003.68 1003.46 1004.13 1004.27 1004.59 1005.01 1005.38 1005.62 1006.03 1006.95 1007.80 1008.79 1009.89 1010.96 1011.81 1012.86 1014.02 1015.24 1016.34 1017.62 1018.80 1019.99 1020.91 1021.48 1022.50 1022.85 1023.29
1007.93 1008.15 1007.83 1007.76 1006.43 1004.76 1004.05 1003.63 1003.66 1003.80 1002.66 1003.19 1003.19 1003.18 1003.44 1004.01 1003.75 1003.36 1004.05 1004.46 1004.87 1005.22 1005.49 1005.76 1006.21 1006.77 1007.51 1008.21 1009.05 1009.84 1010.55 1011.57 1012.67 1013.70 1014.81 1016.07 1017.22 1018.68 1019.68 1020.69 1021.40 1022.06 1022.58 1023.15
1007.57 1007.64 1007.13 1006.88 1006.15 1004.51 1004.44 1004.18 1004.15 1004.09 1003.41 1003.59 1003.73 1003.68 1003.89 1004.07 1003.89 1004.13 1004.60 1004.99 1005.54 1005.86 1006.30 1006.62 1006.85 1007.13 1007.75 1008.67 1009.38 1009.82 1010.62 1011.50 1012.62 1013.91 1015.24 1016.57 1017.31 1018.56 1019.71 1020.66 1021.29 1021.89 1022.34 1023.07
1006.83 1006.93 1006.78 1007.06 1006.46 1005.05 1004.65 1004.94 1004.67 1004.44 1004.39 1004.40 1004.33 1004.40 1004.38 1004.31 1004.42 1004.74 1005.06 1005.38 1005.66 1006.08 1006.72 1007.08 1007.51 1008.14 1008.72 1009.04 1009.59 1010.64 1011.28 1011.96 1013.17 1014.33 1015.43 1016.71 1017.78 1018.72 1019.68 1020.63 1021.34 1021.82 1022.29 1022.86
1006.67 1006.10 1006.11 1006.40 1005.35 1005.17 1005.22 1005.04 1004.99 1005.03 1004.80 1004.82 1004.99 1005.05 1005.06 1004.94 1004.98 1005.30 1005.57 1005.98 1006.33 1006.47 1007.08 1007.72 1008.34 1008.80 1009.52 1009.79 1010.24 1010.75 1012.04 1012.83 1013.93 1015.05 1016.14 1016.97 1018.02 1018.74 1019.69 1020.45 1021.27 1021.75 1022.53 1022.65
1007.34 1007.08 1006.56 1006.53 1005.74 1005.72 1005.65 1005.62 1005.69 1005.71 1005.66 1005.64 1005.65 1005.51 1005.50 1005.32 1005.37 1005.48 1005.90 1006.24 1006.86 1007.46 1007.81 1008.27 1008.83 1009.37 1009.82 1010.30 1010.75 1011.65 1012.42 1013.42 1014.48 1015.80 1017.06 1017.89 1018.28 1019.22 1019.74 1020.31 1021.17 1021.64 1022.23 1022.44
1008.53 1007.97 1007.08 1006.62 1006.55 1006.35 1006.35 1006.32 1006.31 1006.21 1006.22 1006.07 1005.89 1005.77 1005.65 1005.50 1005.35 1005.56 1005.85 1006.33 1007.00 1007.67 1008.06 1008.38 1008.79 1009.31 1009.80 1010.60 1011.24 1011.80 1012.57 1013.41 1014.73 1015.99 1017.06 1018.26 1018.94 1019.04 1019.73 1020.53 1021.22 1021.86 1022.10 1022.32
1009.65 1008.38 1007.95 1007.45 1007.54 1007.77 1007.01 1006.64 1006.64 1006.49 1006.18 1006.22 1006.08 1005.81 1005.62 1005.66 1005.58 1005.78 1006.14 1006.74 1007.16 1007.55 1007.99 1008.40 1008.90 1009.23 1009.73 1010.44 1011.02 1011.84 1012.51 1012.80 1013.58 1015.25 1017.02 1017.55 1018.34 1018.85 1019.42 1020.46 1021.53 1022.38 1022.58 1022.84
Wind_Speed
3 4 6 3 1 2 7 5 12 5 6 10 18 19 11 7 10 13 15 13 13 14 9 9 10 10 12 13 14 14 14 14 12 10 9 7 7 6 7 6 8 8 8 8
3 6 4 3 1 2 3 5 6 3 1 10 8 19 11 11 13 17 16 16 15 14 12 12 12 12 14 15 14 14 14 15 11 8 7 5 8 6 7 7 8 8 9 8
7 3 6 6 5 5 3 6 6 5 4 5 1 11 13 10 13 11 16 16 18 19 18 16 15 13 12 15 15 14 14 14 10 10 8 8 8 7 7 8 7 7 8 9
5 4 5 7 6 10 8 15 7 11 9 4 9 5 6 8 11 16 17 18 20 21 19 18 18 17 16 13 12 13 14 14 12 13 10 12 8 10 7 8 7 7 8 8
3 7 9 6 6 13 6 9 14 10 7 4 8 6 2 1 11 17 20 22 22 23 23 22 19 17 12 9 8 7 7 9 11 8 11 10 9 7 9 8 10 8 7 6
6 2 4 4 3 8 11 7 6 4 4 6 7 9 7 5 10 17 19 19 22 21 22 20 18 14 11 8 11 7 4 6 10 10 9 11 14 13 10 10 9 7 6 5
3 5 3 4 4 3 7 7 5 8 7 8 2 6 9 7 9 10 13 16 17 16 19 19 20 18 16 14 13 14 5 14 13 13 13 14 14 14 14 12 8 9 6 5
4 7 7 6 9 5 8 4 4 8 7 8 4 6 6 5 5 7 8 10 10 15 15 18 21 20 20 19 17 22 22 16 14 14 16 14 14 10 9 10 8 6 6 5
5 5 2 3 2 2 5 5 2 5 2 4 3 4 10 7 8 8 10 10 11 10 12 17 20 22 24 22 22 11 15 18 17 17 13 12 13 12 10 10 8 6 6 6
6 5 1 1 2 6 2 8 4 1 5 9 5 3 5 5 10 9 9 9 6 3 10 15 19 22 23 21 18 15 14 16 16 16 14 13 13 12 11 9 9 9 9 8
5 4 5 3 5 5 4 4 3 1 2 10 12 8 7 11 9 8 9 8 7 7 11 14 17 19 20 19 18 15 16 18 16 15 14 13 12 12 11 10 10 9 9 8
5 3 4 11 1 1 2 4 7 8 6 2 4 7 5 9 8 9 11 8 9 10 11 13 15 17 20 19 17 16 16 15 15 14 13 14 13 13 12 10 10 9 10 9
8 3 3 4 3 3 5 7 5 3 2 8 9 5 4 7 9 10 11 11 10 9 11 12 14 17 17 18 16 15 15 16 16 15 14 14 13 13 12 12 11 10 9 6
8 4 6 8 3 2 4 5 7 10 8 11 10 14 7 10 11 8 10 9 8 9 11 13 15 17 19 19 18 17 17 17 16 16 16 15 14 14 13 13 12 10 7 9
2 8 7 7 7 5 8 10 9 12 14 12 14 11 13 12 6 8 7 6 7 11 14 16 17 17 17 18 19 18 18 18 18 17 16 14 12 12 14 13 10 7 8 8
3 8 7 8 10 11 13 12 9 12 11 11 13 12 13 7 7 9 11 10 12 13 15 17 19 17 19 21 20 19 19 19 19 18 16 15 14 14 14 11 11 7 8 8
4 6 7 15 9 9 14 14 17 14 11 12 15 16 4 8 10 10 10 10 11 12 13 15 16 16 15 16 18 20 19 19 19 19 17 17 16 17 14 12 9 8 9 6
4 4 4 11 6 18 8 4 9 17 17 15 14 9 12 13 8 6 9 10 11 9 10 10 10 11 12 15 17 18 20 19 19 19 18 16 18 16 13 11 10 9 7 9
12 5 5 7 12 16 6 5 9 11 15 13 12 13 12 7 3 9 8 6 11 8 6 6 5 5 10 15 18 20 20 19 19 19 18 18 17 15 13 11 12 9 9 9
11 8 10 5 8 17 5 15 13 3 15 12 15 14 11 5 8 8 1 4 3 3 1 4 6 8 11 14 17 18 19 18 18 18 18 17 17 15 13 13 11 10 9 8
5 7 16 13 12 10 5 4 6 12 9 3 3 7 5 7 6 2 3 2 1 0 3 6 8 9 12 14 16 17 17 17 17 18 17 15 15 14 12 12 11 10 9 10
12 8 7 6 9 13 5 4 10 2 1 2 3 3 5 7 10 9 7 4 3 5 7 7 8 8 10 12 14 13 14 15 16 16 17 15 13 11 12 13 11 11 10 10
17 13 10 9 6 3 3 0 1 1 4 3 6 4 6 7 8 10 8 5 2 4 6 7 10 11 10 12 15 16 15 17 16 14 14 14 13 13 13 13 12 9 9 8
4 2 5 5 8 6 6 2 2 2 4 5 5 7 6 8 8 9 6 3 4 5 8 10 13 13 12 13 15 14 15 15 17 15 10 9 11 11 11 10 9 9 8 7
4 6 2 4 0 2 3 4 5 6 7 10 9 7 9 9 10 7 5 4 5 6 8 10 12 14 15 15 15 15 17 18 16 14 13 11 9 10 10 9 9 8 7 6
6 4 2 2 7 10 14 13 12 12 13 11 8 10 11 10 11 8 5 5 7 8 9 10 12 15 15 15 16 15 18 20 21 18 11 10 9 11 11 10 6 2 2 6
Wind_Direction
32 237 230 237 255 170 126 143 191 205 177 197 223 245 220 209 216 218 205 201 205 207 196 192 184 179 171 169 163 156 150 147 140 144 136 126 121 123 111 107 110 108 103 97
172 238 232 128 105 79 119 132 191 296 109 214 235 252 252 229 229 219 215 208 206 200 195 189 180 172 176 166 165 163 158 158 152 142 139 129 138 131 125 122 115 112 113 103
218 127 138 180 156 165 213 203 180 242 103 179 97 262 247 224 216 219 220 219 212 205 198 191 187 184 178 176 171 167 160 160 157 144 127 118 119 128 139 134 126 121 109 100
231 167 191 180 207 194 204 215 190 173 177 205 194 260 233 233 224 220 219 214 214 210 209 199 189 187 191 180 165 163 160 156 157 158 151 159 159 156 149 145 134 125 116 109
213 180 183 217 227 184 221 180 184 185 181 180 184 246 205 218 220 228 225 221 219 213 206 202 196 194 179 160 148 132 135 147 163 172 161 165 168 151 150 147 141 128 124 117
242 203 224 232 168 188 144 118 105 109 168 227 213 240 230 200 221 233 235 232 228 220 216 205 197 176 152 110 100 79 173 176 181 169 183 185 164 157 158 158 152 150 141 132
222 229 229 187 196 134 187 179 186 218 216 251 141 215 256 247 238 257 260 244 244 230 220 204 187 173 143 141 129 133 202 261 176 178 191 187 169 167 165 163 161 156 148 145
209 229 198 172 218 215 191 217 198 225 230 251 156 218 233 277 251 261 279 280 263 249 221 202 188 170 157 165 170 175 191 196 178 176 189 182 174 171 166 175 163 155 145 133
182 253 277 229 159 229 148 200 66 118 79 241 197 236 268 225 244 257 268 285 280 256 213 195 188 181 174 178 189 202 172 190 184 180 178 173 176 171 169 168 162 145 130 120
196 259 227 69 114 57 196 136 154 192 226 247 202 238 240 203 221 217 249 254 279 220 182 192 194 193 185 182 193 202 181 190 181 177 172 174 176 174 164 159 153 143 130 123
145 222 204 258 208 208 153 186 72 117 266 257 261 249 208 212 213 232 243 249 251 208 198 199 205 203 192 188 191 190 188 187 179 174 170 169 168 163 156 158 146 137 129 126
172 160 233 243 53 323 204 217 188 242 218 244 292 250 190 221 212 207 240 240 233 218 202 202 207 212 199 197 192 182 185 176 171 170 172 164 152 153 155 144 136 136 126 123
180 193 231 221 169 154 224 192 169 106 80 202 238 247 186 229 234 231 240 235 239 226 203 201 202 205 207 203 196 184 180 177 168 165 163 157 153 151 145 141 136 137 129 124
145 157 199 234 236 155 233 224 216 208 224 241 235 256 237 230 232 244 249 254 251 241 228 215 212 210 207 202 194 186 182 173 170 164 163 159 157 153 148 144 138 140 128 125
239 208 193 241 248 225 241 235 203 221 249 241 256 223 244 252 267 245 233 243 240 243 236 229 224 217 208 200 193 185 180 173 165 161 159 159 151 149 145 144 138 130 129 124
176 239 195 233 223 228 244 240 224 225 238 250 257 257 244 259 252 256 254 248 239 247 243 241 237 222 204 197 190 181 175 170 164 156 159 151 149 149 149 136 136 130 131 129
246 196 183 239 227 235 248 222 229 233 230 238 246 259 251 240 237 247 258 263 264 267 260 252 241 229 212 199 186 180 168 163 164 163 162 163 158 151 150 135 133 140 141 141
221 209 229 248 182 240 248 196 242 243 245 238 257 248 249 254 259 265 252 257 272 274 278 271 258 236 206 182 177 171 165 168 167 169 166 159 152 150 140 134 131 145 147 143
216 200 228 234 229 255 264 184 199 206 239 238 244 252 254 240 271 262 268 252 269 288 294 297 279 193 171 172 170 167 168 167 170 168 164 160 155 141 141 149 146 143 149 147
197 228 237 178 233 249 259 230 220 220 257 246 238 251 240 188 248 276 35 358 308 293 219 150 144 151 160 167 165 166 165 166 174 168 159 155 147 143 146 149 143 147 146 147
176 207 226 229 244 255 227 230 164 218 277 352 296 273 214 213 266 337 322 282 304 23 142 140 148 156 159 163 170 168 161 169 162 158 152 143 134 139 140 143 141 144 147 144
219 197 198 210 236 257 178 171 227 352 22 295 327 345 313 316 315 313 307 278 179 142 139 139 133 144 155 160 161 152 155 148 147 143 141 136 135 136 143 139 142 141 141 145
239 235 243 215 237 114 164 85 5 258 286 318 316 352 336 316 323 327 317 311 286 157 138 136 134 123 130 150 150 144 140 144 138 131 130 133 137 140 144 145 141 135 148 149
206 34 236 215 206 232 260 287 0 15 359 355 336 321 313 318 323 310 289 258 207 165 149 151 145 144 140 148 143 135 131 127 124 116 118 128 133 142 146 145 152 151 159 154
335 316 273 254 239 276 119 71 31 358 333 324 319 309 309 313 309 308 293 243 203 185 171 168 166 163 158 152 141 138 138 136 125 127 145 154 149 144 140 156 164 171 170 171
273 291 278 287 323 312 287 295 303 301 302 305 298 308 304 297 296 306 272 228 201 187 178 177 177 167 160 160 152 146 156 151 151 149 158 154 154 156 158 162 164 54 13 192